Location: Newark
(43.4306°N, 0.3089°E)
Time: 13:56:21
(UTC+00:00)

S-56A Canister/Altair - Pass Details

Date: 28 August 2019
Orbit: 633 x 2499 km, 38.9° (Epoch: 21 September)

Event Time Altitude Azimuth Distance (km) Brightness Sun altitude
Rises 18:49:42 0° 233° (SW) 4,097 11.8 -2.3°
Reaches altitude 10° 18:53:10 10° 225° (SW) 2,839 10.9 -2.9°
Maximum altitude 18:58:53 33° 163° (SSE) 1,337 8.5 -3.9°
Drops below altitude 10° 19:03:16 10° 99° (E) 2,157 9.2 -4.6°
Enters shadow 19:04:24 - 93° (E) 2,552 9.6 -4.8°
Sets 19:05:33 0° 89° (E) 2,984 - -5.0°
